Time,TemperatureF,DewpointF,PressureIn,WindDirection,WindDirectionDegrees,WindSpeedMPH,WindSpeedGustMPH,Humidity,HourlyPrecipIn,Conditions,Clouds,dailyrainin,SoftwareType,DateUTC
2013-11-05 00:02:00,28.9,27.7,29.77,SE,133,0.0,0.0,95,0.00,,,0.00,meteohub,2013-11-05 07:02:00,
2013-11-05 00:07:00,29.1,28.0,29.77,SE,132,0.0,0.0,96,0.00,,,0.00,meteohub,2013-11-05 07:07:00,
2013-11-05 00:12:00,29.1,27.9,29.77,SE,133,0.0,0.0,95,0.00,,,0.00,meteohub,2013-11-05 07:12:00,
2013-11-05 00:17:00,29.1,28.0,29.77,SE,132,0.0,0.0,96,0.00,,,0.00,meteohub,2013-11-05 07:17:00,
2013-11-05 00:22:00,29.1,27.9,29.77,SE,133,0.0,0.0,95,0.00,,,0.00,meteohub,2013-11-05 07:22:00,
2013-11-05 00:27:00,29.1,27.9,29.76,SE,131,0.0,0.0,95,0.00,,,0.00,meteohub,2013-11-05 07:27:00,
2013-11-05 00:32:00,29.1,27.9,29.76,SE,131,0.0,0.0,95,0.00,,,0.00,meteohub,2013-11-05 07:32:00,
2013-11-05 00:37:00,29.1,27.9,29.75,SE,131,0.0,0.0,95,0.00,,,0.00,meteohub,2013-11-05 07:37:00,
2013-11-05 00:42:00,29.1,27.9,29.75,SE,129,0.0,0.0,95,0.00,,,0.00,meteohub,2013-11-05 07:42:00,
2013-11-05 00:47:00,28.9,27.7,29.75,SE,127,0.0,0.0,95,0.00,,,0.00,meteohub,2013-11-05 07:47:00,
2013-11-05 00:52:00,28.9,27.7,29.74,SE,127,0.0,0.0,95,0.00,,,0.00,meteohub,2013-11-05 07:52:00,
2013-11-05 00:57:00,28.9,27.7,29.73,SE,139,0.0,0.0,95,0.00,,,0.00,meteohub,2013-11-05 07:57:00,
2013-11-05 01:02:00,28.8,27.5,29.73,SE,140,0.0,0.0,95,0.00,,,0.00,meteohub,2013-11-05 08:02:00,
2013-11-05 01:07:00,28.9,27.7,29.73,SE,139,0.0,0.0,95,0.00,,,0.00,meteohub,2013-11-05 08:07:00,
2013-11-05 01:12:00,28.9,27.7,29.74,SE,139,0.0,0.0,95,0.00,,,0.00,meteohub,2013-11-05 08:12:00,
2013-11-05 01:17:00,28.9,27.7,29.73,SE,139,0.0,0.0,95,0.00,,,0.00,meteohub,2013-11-05 08:17:00,
2013-11-05 01:22:00,28.9,27.9,29.73,SE,139,0.0,0.0,96,0.00,,,0.00,meteohub,2013-11-05 08:22:00,
2013-11-05 01:27:00,28.9,27.9,29.73,SW,218,0.0,0.0,96,0.00,,,0.00,meteohub,2013-11-05 08:27:00,
2013-11-05 01:32:00,29.1,28.0,29.73,SE,126,1.0,0.0,96,0.00,,,0.00,meteohub,2013-11-05 08:32:00,
2013-11-05 01:37:00,29.3,28.2,29.74,ESE,120,0.0,2.0,96,0.00,,,0.00,meteohub,2013-11-05 08:37:00,
2013-11-05 01:42:00,29.5,28.4,29.74,SE,127,0.0,2.0,96,0.00,,,0.00,meteohub,2013-11-05 08:42:00,
2013-11-05 01:47:00,29.5,28.4,29.74,ESE,117,0.0,2.0,96,0.00,,,0.00,meteohub,2013-11-05 08:47:00,
2013-11-05 01:52:00,29.7,28.6,29.74,ESE,105,2.0,0.0,96,0.00,,,0.00,meteohub,2013-11-05 08:52:00,
2013-11-05 01:57:00,29.8,28.8,29.74,ESE,115,0.0,2.0,96,0.00,,,0.00,meteohub,2013-11-05 08:57:00,
2013-11-05 02:02:00,30.0,28.9,29.73,ESE,115,0.0,2.0,96,0.00,,,0.00,meteohub,2013-11-05 09:02:00,
2013-11-05 02:07:00,30.2,29.1,29.73,ESE,117,0.0,2.0,96,0.00,,,0.00,meteohub,2013-11-05 09:07:00,
2013-11-05 02:12:00,30.2,29.1,29.73,ESE,116,0.0,0.0,96,0.00,,,0.00,meteohub,2013-11-05 09:12:00,
2013-11-05 02:17:00,30.4,29.3,29.73,ESE,112,0.0,0.0,96,0.00,,,0.00,meteohub,2013-11-05 09:17:00,
2013-11-05 02:22:00,30.4,29.3,29.74,ESE,112,0.0,0.0,96,0.00,,,0.00,meteohub,2013-11-05 09:22:00,
2013-11-05 02:27:00,30.6,29.5,29.74,ESE,115,0.0,0.0,96,0.00,,,0.00,meteohub,2013-11-05 09:27:00,
2013-11-05 02:32:00,30.7,29.7,29.74,SE,127,0.0,0.0,96,0.00,,,0.00,meteohub,2013-11-05 09:32:00,
2013-11-05 02:37:00,30.7,29.7,29.74,ESE,122,0.0,0.0,96,0.00,,,0.00,meteohub,2013-11-05 09:37:00,
2013-11-05 02:42:00,30.6,29.5,29.74,SSE,153,0.0,0.0,96,0.00,,,0.00,meteohub,2013-11-05 09:42:00,
2013-11-05 02:47:00,30.6,29.5,29.73,SE,146,0.0,0.0,96,0.00,,,0.00,meteohub,2013-11-05 09:47:00,
2013-11-05 02:52:00,30.7,29.7,29.73,SE,136,0.0,0.0,96,0.00,,,0.00,meteohub,2013-11-05 09:52:00,
2013-11-05 02:57:00,30.7,29.7,29.73,South,178,0.0,0.0,96,0.00,,,0.00,meteohub,2013-11-05 09:57:00,
2013-11-05 03:02:00,30.7,29.7,29.73,SE,129,0.0,0.0,96,0.00,,,0.00,meteohub,2013-11-05 10:02:00,
2013-11-05 03:07:00,30.7,29.7,29.72,West,262,0.0,0.0,96,0.00,,,0.00,meteohub,2013-11-05 10:07:00,
2013-11-05 03:12:00,30.7,29.7,29.72,SSE,150,0.0,0.0,96,0.00,,,0.00,meteohub,2013-11-05 10:12:00,
2013-11-05 03:17:00,30.7,29.7,29.72,SE,134,0.0,0.0,96,0.00,,,0.00,meteohub,2013-11-05 10:17:00,
2013-11-05 03:22:00,31.3,30.6,29.72,ESE,106,0.0,0.0,97,0.00,,,0.00,meteohub,2013-11-05 10:22:00,
2013-11-05 03:27:00,31.3,30.6,29.73,ESE,108,0.0,0.0,97,0.00,,,0.00,meteohub,2013-11-05 10:27:00,
2013-11-05 03:32:00,31.5,30.7,29.72,SSE,148,0.0,0.0,97,0.00,,,0.00,meteohub,2013-11-05 10:32:00,
2013-11-05 03:37:00,31.5,30.4,29.72,ESE,121,0.0,0.0,96,0.00,,,0.00,meteohub,2013-11-05 10:37:00,
2013-11-05 03:42:00,31.6,30.6,29.73,ESE,122,0.0,0.0,96,0.00,,,0.00,meteohub,2013-11-05 10:42:00,
2013-11-05 03:47:00,31.6,30.6,29.72,ESE,110,0.0,0.0,96,0.00,,,0.00,meteohub,2013-11-05 10:47:00,
2013-11-05 03:52:00,31.6,30.6,29.72,SSE,150,0.0,0.0,96,0.00,,,0.00,meteohub,2013-11-05 10:52:00,
2013-11-05 03:57:00,31.8,30.7,29.73,SE,136,0.0,0.0,96,0.00,,,0.00,meteohub,2013-11-05 10:57:00,
2013-11-05 04:02:00,31.8,30.7,29.72,SE,139,0.0,0.0,96,0.00,,,0.00,meteohub,2013-11-05 11:02:00,
2013-11-05 04:07:00,31.8,30.7,29.72,ESE,122,0.0,0.0,96,0.00,,,0.00,meteohub,2013-11-05 11:07:00,
2013-11-05 04:12:00,31.6,30.6,29.72,ESE,123,0.0,0.0,96,0.00,,,0.00,meteohub,2013-11-05 11:12:00,
2013-11-05 04:17:00,31.6,30.6,29.72,South,169,0.0,0.0,96,0.00,,,0.00,meteohub,2013-11-05 11:17:00,
2013-11-05 04:22:00,31.6,30.6,29.71,ESE,120,0.0,0.0,96,0.00,,,0.00,meteohub,2013-11-05 11:22:00,
2013-11-05 04:27:00,31.5,30.4,29.71,ESE,115,0.0,0.0,96,0.00,,,0.00,meteohub,2013-11-05 11:27:00,
2013-11-05 04:32:00,31.6,30.6,29.72,SE,134,0.0,0.0,96,0.00,,,0.00,meteohub,2013-11-05 11:32:00,
2013-11-05 04:37:00,31.5,30.4,29.72,South,176,0.0,0.0,96,0.00,,,0.00,meteohub,2013-11-05 11:37:00,
2013-11-05 04:42:00,31.5,30.4,29.72,ESE,115,0.0,0.0,96,0.00,,,0.00,meteohub,2013-11-05 11:42:00,
2013-11-05 04:47:00,31.3,30.2,29.72,SE,129,0.0,0.0,96,0.00,,,0.00,meteohub,2013-11-05 11:47:00,
2013-11-05 04:52:00,31.3,30.2,29.71,ESE,109,0.0,0.0,96,0.00,,,0.00,meteohub,2013-11-05 11:52:00,
2013-11-05 04:57:00,31.1,30.0,29.72,SE,136,0.0,0.0,96,0.00,,,0.00,meteohub,2013-11-05 11:57:00,
2013-11-05 05:02:00,31.1,30.0,29.72,SE,145,0.0,0.0,96,0.00,,,0.00,meteohub,2013-11-05 12:02:00,
2013-11-05 05:07:00,30.9,29.8,29.73,SSE,148,0.0,0.0,96,0.00,,,0.00,meteohub,2013-11-05 12:07:00,
2013-11-05 05:12:00,30.7,29.7,29.73,ENE,58,0.0,0.0,96,0.00,,,0.00,meteohub,2013-11-05 12:12:00,
2013-11-05 05:17:00,30.4,29.3,29.73,SSE,158,0.0,0.0,96,0.00,,,0.00,meteohub,2013-11-05 12:17:00,
2013-11-05 05:22:00,30.2,29.1,29.73,WSW,247,0.0,0.0,96,0.00,,,0.00,meteohub,2013-11-05 12:22:00,
2013-11-05 05:27:00,30.0,28.9,29.73,ESE,105,0.0,0.0,96,0.00,,,0.00,meteohub,2013-11-05 12:27:00,
2013-11-05 05:32:00,29.7,28.6,29.73,South,181,0.0,0.0,96,0.00,,,0.00,meteohub,2013-11-05 12:32:00,
2013-11-05 05:37:00,29.7,28.6,29.73,SSE,150,0.0,0.0,96,0.00,,,0.00,meteohub,2013-11-05 12:37:00,
2013-11-05 05:42:00,29.5,28.4,29.74,SW,221,0.0,0.0,96,0.00,,,0.00,meteohub,2013-11-05 12:42:00,
2013-11-05 05:47:00,29.5,28.4,29.73,SSW,208,0.0,0.0,96,0.00,,,0.00,meteohub,2013-11-05 12:47:00,
2013-11-05 05:52:00,29.3,28.2,29.74,SSE,150,0.0,0.0,96,0.00,,,0.00,meteohub,2013-11-05 12:52:00,
2013-11-05 05:57:00,29.1,28.0,29.74,SSW,209,0.0,0.0,96,0.00,,,0.00,meteohub,2013-11-05 12:57:00,
2013-11-05 06:02:00,28.9,27.9,29.74,East,100,0.0,0.0,96,0.00,,,0.00,meteohub,2013-11-05 13:02:00,
2013-11-05 06:07:00,29.1,28.0,29.74,ESE,110,0.0,0.0,96,0.00,,,0.00,meteohub,2013-11-05 13:07:00,
2013-11-05 06:12:00,28.9,27.9,29.75,SE,126,0.0,0.0,96,0.00,,,0.00,meteohub,2013-11-05 13:12:00,
2013-11-05 06:17:00,28.9,27.9,29.75,SSE,150,0.0,0.0,96,0.00,,,0.00,meteohub,2013-11-05 13:17:00,
2013-11-05 06:22:00,28.9,27.9,29.75,ESE,110,0.0,0.0,96,0.00,,,0.00,meteohub,2013-11-05 13:22:00,
2013-11-05 06:27:00,28.9,27.9,29.75,ESE,110,0.0,0.0,96,0.00,,,0.00,meteohub,2013-11-05 13:27:00,
2013-11-05 06:32:00,28.9,27.9,29.76,SE,141,0.0,0.0,96,0.00,,,0.00,meteohub,2013-11-05 13:32:00,
2013-11-05 06:37:00,28.9,27.9,29.76,SW,225,0.0,0.0,96,0.00,,,0.00,meteohub,2013-11-05 13:37:00,
2013-11-05 06:42:00,28.9,27.9,29.77,SSE,160,0.0,0.0,96,0.00,,,0.00,meteohub,2013-11-05 13:42:00,
2013-11-05 06:47:00,28.9,27.9,29.77,SE,131,0.0,0.0,96,0.00,,,0.00,meteohub,2013-11-05 13:47:00,
2013-11-05 06:52:00,29.1,28.0,29.77,South,188,0.0,0.0,96,0.00,,,0.00,meteohub,2013-11-05 13:52:00,
2013-11-05 06:57:00,28.9,27.9,29.77,SE,139,0.0,0.0,96,0.00,,,0.00,meteohub,2013-11-05 13:57:00,
2013-11-05 07:02:00,28.9,27.9,29.77,ESE,117,0.0,0.0,96,0.00,,,0.00,meteohub,2013-11-05 14:02:00,
2013-11-05 07:07:00,28.9,27.9,29.78,West,281,0.0,0.0,96,0.00,,,0.00,meteohub,2013-11-05 14:07:00,
2013-11-05 07:12:00,28.8,27.7,29.78,SSE,162,0.0,0.0,96,0.00,,,0.00,meteohub,2013-11-05 14:12:00,
2013-11-05 07:17:00,28.8,27.7,29.78,NE,46,0.0,0.0,96,0.00,,,0.00,meteohub,2013-11-05 14:17:00,
2013-11-05 07:22:00,28.8,27.7,29.78,West,264,0.0,0.0,96,0.00,,,0.00,meteohub,2013-11-05 14:22:00,
2013-11-05 07:27:00,28.8,27.7,29.79,SW,230,0.0,0.0,96,0.00,,,0.00,meteohub,2013-11-05 14:27:00,
2013-11-05 07:32:00,28.8,27.7,29.79,SE,146,0.0,0.0,96,0.00,,,0.00,meteohub,2013-11-05 14:32:00,
2013-11-05 07:37:00,28.8,27.7,29.80,East,86,0.0,0.0,96,0.00,,,0.00,meteohub,2013-11-05 14:37:00,
2013-11-05 07:42:00,28.8,27.7,29.80,South,186,0.0,0.0,96,0.00,,,0.00,meteohub,2013-11-05 14:42:00,
2013-11-05 07:47:00,28.8,27.7,29.79,SE,146,0.0,0.0,96,0.00,,,0.00,meteohub,2013-11-05 14:47:00,
2013-11-05 07:52:00,28.8,27.5,29.79,SSE,155,0.0,0.0,95,0.00,,,0.00,meteohub,2013-11-05 14:52:00,
2013-11-05 07:57:00,28.9,27.7,29.80,SSW,203,0.0,0.0,95,0.00,,,0.00,meteohub,2013-11-05 14:57:00,
2013-11-05 08:02:00,29.1,27.9,29.80,South,180,0.0,0.0,95,0.00,,,0.00,meteohub,2013-11-05 15:02:00,
2013-11-05 08:07:00,29.1,27.9,29.80,WSW,238,0.0,0.0,95,0.00,,,0.00,meteohub,2013-11-05 15:07:00,
2013-11-05 08:12:00,29.3,28.0,29.81,ESE,122,0.0,0.0,95,0.00,,,0.00,meteohub,2013-11-05 15:12:00,
2013-11-05 08:17:00,29.3,28.0,29.81,East,85,0.0,0.0,95,0.00,,,0.00,meteohub,2013-11-05 15:17:00,
2013-11-05 08:22:00,29.5,28.2,29.81,SE,133,0.0,0.0,95,0.00,,,0.00,meteohub,2013-11-05 15:22:00,
2013-11-05 08:27:00,29.5,28.2,29.81,SE,129,0.0,0.0,95,0.00,,,0.00,meteohub,2013-11-05 15:27:00,
2013-11-05 08:32:00,29.5,28.0,29.80,ESE,117,0.0,0.0,94,0.00,,,0.00,meteohub,2013-11-05 15:32:00,
2013-11-05 08:37:00,29.5,28.2,29.80,WSW,248,0.0,0.0,95,0.00,,,0.00,meteohub,2013-11-05 15:37:00,
2013-11-05 08:42:00,29.3,28.0,29.80,SW,236,0.0,0.0,95,0.00,,,0.00,meteohub,2013-11-05 15:42:00,
2013-11-05 08:47:00,29.5,28.2,29.80,WSW,245,0.0,0.0,95,0.00,,,0.00,meteohub,2013-11-05 15:47:00,
2013-11-05 08:52:00,29.3,28.0,29.80,SE,141,0.0,0.0,95,0.00,,,0.00,meteohub,2013-11-05 15:52:00,
2013-11-05 08:57:00,29.3,28.0,29.80,SSE,162,0.0,0.0,95,0.00,,,0.00,meteohub,2013-11-05 15:57:00,
2013-11-05 09:03:00,29.3,28.0,29.79,SSE,152,0.0,0.0,95,0.00,,,0.00,meteohub,2013-11-05 16:03:00,
2013-11-05 09:08:00,29.5,28.2,29.79,ESE,107,0.0,0.0,95,0.00,,,0.00,meteohub,2013-11-05 16:08:00,
2013-11-05 09:13:00,29.3,27.9,29.79,SE,138,0.0,0.0,94,0.00,,,0.00,meteohub,2013-11-05 16:13:00,
2013-11-05 09:18:00,29.1,27.9,29.79,SSW,204,0.0,0.0,95,0.00,,,0.00,meteohub,2013-11-05 16:18:00,
2013-11-05 09:23:00,28.9,27.5,29.79,SSE,148,0.0,0.0,94,0.00,,,0.00,meteohub,2013-11-05 16:23:00,
2013-11-05 09:28:00,28.6,27.3,29.79,SW,235,0.0,0.0,95,0.00,,,0.00,meteohub,2013-11-05 16:28:00,
2013-11-05 09:33:00,28.4,27.1,29.79,West,262,0.0,0.0,95,0.00,,,0.00,meteohub,2013-11-05 16:33:00,
2013-11-05 09:39:00,28.6,27.5,29.80,ESE,115,0.0,0.0,96,0.00,,,0.00,meteohub,2013-11-05 16:39:00,
2013-11-05 09:44:00,28.6,27.5,29.80,SE,145,0.0,0.0,96,0.00,,,0.00,meteohub,2013-11-05 16:44:00,
2013-11-05 09:49:00,28.6,27.5,29.81,SE,126,0.0,0.0,96,0.00,,,0.00,meteohub,2013-11-05 16:49:00,
2013-11-05 09:54:00,28.9,27.9,29.81,ESE,105,0.0,0.0,96,0.00,,,0.00,meteohub,2013-11-05 16:54:00,
2013-11-05 09:59:00,29.1,27.9,29.81,ENE,77,0.0,0.0,95,0.00,,,0.00,meteohub,2013-11-05 16:59:00,
2013-11-05 10:04:00,29.3,28.0,29.81,ESE,122,0.0,0.0,95,0.00,,,0.00,meteohub,2013-11-05 17:04:00,
2013-11-05 10:09:00,29.5,28.0,29.81,ESE,110,0.0,0.0,94,0.00,,,0.00,meteohub,2013-11-05 17:09:00,
2013-11-05 10:14:00,29.5,28.0,29.81,SE,133,0.0,0.0,94,0.00,,,0.00,meteohub,2013-11-05 17:14:00,
2013-11-05 10:20:00,29.3,27.5,29.81,SSE,162,0.0,0.0,93,0.00,,,0.00,meteohub,2013-11-05 17:20:00,
2013-11-05 10:25:00,29.3,27.5,29.81,SE,134,0.0,0.0,93,0.00,,,0.00,meteohub,2013-11-05 17:25:00,
2013-11-05 10:30:00,29.1,27.3,29.82,East,101,0.0,0.0,93,0.00,,,0.00,meteohub,2013-11-05 17:30:00,
2013-11-05 10:37:00,29.1,27.1,29.82,SE,134,0.0,0.0,92,0.00,,,0.00,meteohub,2013-11-05 17:37:00,
2013-11-05 10:42:00,29.1,27.1,29.82,ENE,74,0.0,0.0,92,0.00,,,0.00,meteohub,2013-11-05 17:42:00,
2013-11-05 10:47:00,29.1,27.1,29.83,SE,135,0.0,0.0,92,0.00,,,0.00,meteohub,2013-11-05 17:47:00,
2013-11-05 10:52:00,29.1,27.1,29.83,WSW,242,0.0,0.0,92,0.00,,,0.00,meteohub,2013-11-05 17:52:00,
2013-11-05 10:57:00,29.1,27.1,29.83,ESE,119,0.0,0.0,92,0.00,,,0.00,meteohub,2013-11-05 17:57:00,
2013-11-05 11:02:00,29.7,27.3,29.83,SSE,155,0.0,0.0,91,0.00,,,0.00,meteohub,2013-11-05 18:02:00,
2013-11-05 11:07:00,30.4,27.9,29.84,South,173,0.0,0.0,90,0.00,,,0.00,meteohub,2013-11-05 18:07:00,
2013-11-05 11:12:00,31.3,28.4,29.84,SW,228,0.0,0.0,89,0.00,,,0.00,meteohub,2013-11-05 18:12:00,
2013-11-05 11:17:00,31.6,27.9,29.84,SSE,163,0.0,0.0,86,0.00,,,0.00,meteohub,2013-11-05 18:17:00,
2013-11-05 11:22:00,32.2,28.4,29.84,NE,44,0.0,0.0,86,0.00,,,0.00,meteohub,2013-11-05 18:22:00,
2013-11-05 11:27:00,31.8,27.5,29.84,SW,218,0.0,0.0,84,0.00,,,0.00,meteohub,2013-11-05 18:27:00,
2013-11-05 11:32:00,31.8,28.0,29.84,WNW,300,0.0,0.0,86,0.00,,,0.00,meteohub,2013-11-05 18:32:00,
2013-11-05 11:37:00,31.8,27.3,29.84,South,177,0.0,0.0,83,0.00,,,0.00,meteohub,2013-11-05 18:37:00,
2013-11-05 11:42:00,31.1,26.8,29.84,SE,141,0.0,0.0,84,0.00,,,0.00,meteohub,2013-11-05 18:42:00,
2013-11-05 11:47:00,30.6,26.6,29.84,ESE,120,0.0,0.0,85,0.00,,,0.00,meteohub,2013-11-05 18:47:00,
2013-11-05 11:52:00,30.4,27.0,29.84,SE,143,0.0,0.0,87,0.00,,,0.00,meteohub,2013-11-05 18:52:00,
2013-11-05 11:57:00,30.4,27.0,29.83,East,99,0.0,0.0,87,0.00,,,0.00,meteohub,2013-11-05 18:57:00,
2013-11-05 12:02:00,29.8,26.2,29.83,East,98,0.0,0.0,86,0.00,,,0.00,meteohub,2013-11-05 19:02:00,
2013-11-05 12:07:00,29.8,26.4,29.83,SSE,155,0.0,0.0,87,0.00,,,0.00,meteohub,2013-11-05 19:07:00,
2013-11-05 12:12:00,29.8,26.2,29.83,SSE,150,0.0,0.0,86,0.00,,,0.00,meteohub,2013-11-05 19:12:00,
2013-11-05 12:17:00,29.8,26.4,29.83,South,174,0.0,0.0,87,0.00,,,0.00,meteohub,2013-11-05 19:17:00,
2013-11-05 12:22:00,30.0,26.1,29.83,SE,131,0.0,0.0,85,0.00,,,0.00,meteohub,2013-11-05 19:22:00,
2013-11-05 12:27:00,30.0,26.4,29.83,SSE,152,0.0,0.0,86,0.00,,,0.00,meteohub,2013-11-05 19:27:00,
2013-11-05 12:32:00,30.6,27.0,29.83,SE,125,0.0,0.0,86,0.00,,,0.00,meteohub,2013-11-05 19:32:00,
2013-11-05 12:37:00,31.3,27.3,29.83,SE,146,0.0,1.0,85,0.00,,,0.00,meteohub,2013-11-05 19:37:00,
2013-11-05 12:42:00,31.5,27.0,29.83,SE,131,0.0,1.0,83,0.00,,,0.00,meteohub,2013-11-05 19:42:00,
2013-11-05 12:47:00,31.1,25.7,29.83,South,179,0.0,0.0,80,0.00,,,0.00,meteohub,2013-11-05 19:47:00,
2013-11-05 12:52:00,30.4,25.5,29.83,SSE,153,0.0,0.0,82,0.00,,,0.00,meteohub,2013-11-05 19:52:00,
2013-11-05 12:57:00,29.8,25.0,29.82,ESE,120,0.0,0.0,82,0.00,,,0.00,meteohub,2013-11-05 19:57:00,
2013-11-05 13:02:00,29.5,25.0,29.82,SSE,167,0.0,0.0,83,0.00,,,0.00,meteohub,2013-11-05 20:02:00,
2013-11-05 13:07:00,28.9,24.8,29.82,South,191,0.0,0.0,84,0.00,,,0.00,meteohub,2013-11-05 20:07:00,
2013-11-05 13:12:00,28.9,24.8,29.82,SSE,156,0.0,0.0,84,0.00,,,0.00,meteohub,2013-11-05 20:12:00,
2013-11-05 13:17:00,28.9,24.8,29.82,ESE,102,0.0,0.0,84,0.00,,,0.00,meteohub,2013-11-05 20:17:00,
2013-11-05 13:22:00,29.1,24.3,29.82,SE,127,0.0,0.0,82,0.00,,,0.00,meteohub,2013-11-05 20:22:00,
2013-11-05 13:27:00,29.1,23.7,29.82,East,91,0.0,0.0,80,0.00,,,0.00,meteohub,2013-11-05 20:27:00,
2013-11-05 13:32:00,28.9,23.9,29.82,SSW,205,0.0,0.0,81,0.00,,,0.00,meteohub,2013-11-05 20:32:00,
2013-11-05 13:37:00,28.9,23.9,29.82,ESE,115,0.0,0.0,81,0.00,,,0.00,meteohub,2013-11-05 20:37:00,
2013-11-05 13:42:00,28.8,23.9,29.82,South,180,0.0,0.0,82,0.00,,,0.00,meteohub,2013-11-05 20:42:00,
2013-11-05 13:47:00,28.6,24.1,29.82,SW,225,0.0,0.0,83,0.00,,,0.00,meteohub,2013-11-05 20:47:00,
2013-11-05 13:52:00,28.4,23.4,29.81,ESE,119,0.0,0.0,81,0.00,,,0.00,meteohub,2013-11-05 20:52:00,
2013-11-05 13:57:00,28.8,23.4,29.83,SE,126,0.0,0.0,80,0.00,,,0.00,meteohub,2013-11-05 20:57:00,
2013-11-05 14:02:00,28.9,23.2,29.83,SSW,203,0.0,0.0,79,0.00,,,0.00,meteohub,2013-11-05 21:02:00,
2013-11-05 14:07:00,28.9,23.2,29.83,SE,145,0.0,0.0,79,0.00,,,0.00,meteohub,2013-11-05 21:07:00,
2013-11-05 14:13:00,29.3,23.9,29.83,SE,129,0.0,0.0,80,0.00,,,0.00,meteohub,2013-11-05 21:13:00,
2013-11-05 14:18:00,29.3,24.3,29.84,SE,131,0.0,0.0,81,0.00,,,0.00,meteohub,2013-11-05 21:18:00,
2013-11-05 14:23:00,28.8,23.9,29.85,SE,141,0.0,0.0,82,0.00,,,0.00,meteohub,2013-11-05 21:23:00,
2013-11-05 14:28:00,28.6,24.1,29.86,WNW,295,0.0,0.0,83,0.00,,,0.00,meteohub,2013-11-05 21:28:00,
2013-11-05 14:33:00,28.6,23.5,29.86,SW,229,0.0,0.0,81,0.00,,,0.00,meteohub,2013-11-05 21:33:00,
2013-11-05 14:38:00,28.2,22.8,29.87,ESE,120,0.0,0.0,80,0.00,,,0.00,meteohub,2013-11-05 21:38:00,
2013-11-05 14:43:00,28.0,22.6,29.88,ESE,115,0.0,0.0,80,0.00,,,0.00,meteohub,2013-11-05 21:43:00,
2013-11-05 14:48:00,28.0,23.0,29.88,ESE,120,0.0,0.0,81,0.00,,,0.00,meteohub,2013-11-05 21:48:00,
2013-11-05 14:53:00,28.2,22.3,29.88,SE,124,0.0,0.0,78,0.00,,,0.00,meteohub,2013-11-05 21:53:00,
2013-11-05 14:58:00,28.2,21.6,29.89,SW,232,0.0,0.0,76,0.00,,,0.00,meteohub,2013-11-05 21:58:00,
2013-11-05 15:03:00,27.9,21.9,29.88,SE,139,0.0,0.0,78,0.00,,,0.00,meteohub,2013-11-05 22:03:00,
2013-11-05 15:09:00,27.5,21.9,29.89,SW,229,0.0,0.0,79,0.00,,,0.00,meteohub,2013-11-05 22:09:00,
2013-11-05 15:14:00,27.1,21.6,29.90,SE,127,0.0,0.0,79,0.00,,,0.00,meteohub,2013-11-05 22:14:00,
2013-11-05 15:19:00,27.0,21.4,29.90,SW,226,0.0,0.0,79,0.00,,,0.00,meteohub,2013-11-05 22:19:00,
2013-11-05 15:24:00,27.1,21.6,29.90,SE,133,0.0,0.0,79,0.00,,,0.00,meteohub,2013-11-05 22:24:00,
2013-11-05 15:29:00,27.1,21.2,29.90,SE,127,0.0,0.0,78,0.00,,,0.00,meteohub,2013-11-05 22:29:00,
2013-11-05 15:34:00,26.8,20.8,29.90,SE,134,0.0,0.0,78,0.00,,,0.00,meteohub,2013-11-05 22:34:00,
2013-11-05 15:39:00,26.6,21.0,29.91,SE,131,0.0,0.0,79,0.00,,,0.00,meteohub,2013-11-05 22:39:00,
2013-11-05 15:44:00,26.4,21.0,29.92,SSW,212,0.0,0.0,80,0.00,,,0.00,meteohub,2013-11-05 22:44:00,
2013-11-05 15:49:00,26.4,21.4,29.93,South,179,0.0,0.0,81,0.00,,,0.00,meteohub,2013-11-05 22:49:00,
2013-11-05 15:55:00,26.4,21.4,29.93,East,96,0.0,0.0,81,0.00,,,0.00,meteohub,2013-11-05 22:55:00,
2013-11-05 16:00:00,26.4,21.4,29.93,SE,139,0.0,0.0,81,0.00,,,0.00,meteohub,2013-11-05 23:00:00,
2013-11-05 16:05:00,26.1,20.1,29.93,SE,143,0.0,0.0,78,0.00,,,0.00,meteohub,2013-11-05 23:05:00,
2013-11-05 16:10:00,25.9,19.4,29.93,SE,142,0.0,0.0,76,0.00,,,0.00,meteohub,2013-11-05 23:10:00,
2013-11-05 16:15:00,25.5,19.4,29.93,SSW,198,0.0,0.0,77,0.00,,,0.00,meteohub,2013-11-05 23:15:00,
2013-11-05 16:20:00,25.5,19.6,29.93,WSW,238,0.0,0.0,78,0.00,,,0.00,meteohub,2013-11-05 23:20:00,
2013-11-05 16:25:00,25.3,19.8,29.92,SE,143,0.0,0.0,79,0.00,,,0.00,meteohub,2013-11-05 23:25:00,
2013-11-05 16:30:00,25.2,19.9,29.93,South,179,0.0,0.0,80,0.00,,,0.00,meteohub,2013-11-05 23:30:00,
2013-11-05 16:35:00,25.0,19.8,29.94,SE,142,0.0,0.0,80,0.00,,,0.00,meteohub,2013-11-05 23:35:00,
2013-11-05 16:41:00,24.6,19.0,29.94,East,86,0.0,0.0,79,0.00,,,0.00,meteohub,2013-11-05 23:41:00,
2013-11-05 16:46:00,24.4,18.9,29.94,South,173,0.0,0.0,79,0.00,,,0.00,meteohub,2013-11-05 23:46:00,
2013-11-05 16:51:00,24.3,19.0,29.95,SE,133,0.0,0.0,80,0.00,,,0.00,meteohub,2013-11-05 23:51:00,
2013-11-05 16:56:00,24.1,18.9,29.95,SSE,148,0.0,0.0,80,0.00,,,0.00,meteohub,2013-11-05 23:56:00,
2013-11-05 17:01:00,23.9,18.3,29.95,SSW,210,0.0,0.0,79,0.00,,,0.00,meteohub,2013-11-06 00:01:00,
2013-11-05 17:06:00,23.7,18.5,29.96,SW,232,0.0,0.0,80,0.00,,,0.00,meteohub,2013-11-06 00:06:00,
2013-11-05 17:11:00,23.5,18.5,29.96,WSW,245,0.0,0.0,81,0.00,,,0.00,meteohub,2013-11-06 00:11:00,
2013-11-05 17:17:00,23.4,18.3,29.98,SSW,202,0.0,0.0,81,0.00,,,0.00,meteohub,2013-11-06 00:17:00,
2013-11-05 17:22:00,23.2,18.1,29.98,ESE,117,0.0,0.0,81,0.00,,,0.00,meteohub,2013-11-06 00:22:00,
2013-11-05 17:27:00,23.2,18.1,29.99,SE,129,0.0,0.0,81,0.00,,,0.00,meteohub,2013-11-06 00:27:00,
2013-11-05 17:32:00,22.8,18.1,29.98,SE,141,0.0,0.0,82,0.00,,,0.00,meteohub,2013-11-06 00:32:00,
2013-11-05 17:37:00,22.8,18.5,29.99,ESE,108,0.0,0.0,83,0.00,,,0.00,meteohub,2013-11-06 00:37:00,
2013-11-05 17:42:00,22.6,18.3,29.99,SE,143,0.0,0.0,83,0.00,,,0.00,meteohub,2013-11-06 00:42:00,
2013-11-05 17:47:00,22.5,18.1,30.00,WSW,240,0.0,0.0,83,0.00,,,0.00,meteohub,2013-11-06 00:47:00,
2013-11-05 17:52:00,22.5,18.1,30.01,SW,226,0.0,0.0,83,0.00,,,0.00,meteohub,2013-11-06 00:52:00,
2013-11-05 17:57:00,22.3,18.0,30.01,SE,124,0.0,0.0,83,0.00,,,0.00,meteohub,2013-11-06 00:57:00,
2013-11-05 18:02:00,22.3,18.0,30.01,ESE,114,0.0,0.0,83,0.00,,,0.00,meteohub,2013-11-06 01:02:00,
2013-11-05 18:07:00,22.3,18.1,30.01,SSE,162,0.0,0.0,84,0.00,,,0.00,meteohub,2013-11-06 01:07:00,
2013-11-05 18:12:00,22.1,18.0,30.03,ESE,119,0.0,0.0,84,0.00,,,0.00,meteohub,2013-11-06 01:12:00,
2013-11-05 18:17:00,22.1,18.3,30.03,SW,215,0.0,0.0,85,0.00,,,0.00,meteohub,2013-11-06 01:17:00,
2013-11-05 18:22:00,21.9,18.1,30.03,SSE,165,0.0,0.0,85,0.00,,,0.00,meteohub,2013-11-06 01:22:00,
2013-11-05 18:27:00,21.7,17.6,30.04,South,190,0.0,0.0,84,0.00,,,0.00,meteohub,2013-11-06 01:27:00,
2013-11-05 18:32:00,21.7,17.6,30.05,SW,226,0.0,0.0,84,0.00,,,0.00,meteohub,2013-11-06 01:32:00,
2013-11-05 18:37:00,21.7,17.4,30.05,SW,228,0.0,0.0,83,0.00,,,0.00,meteohub,2013-11-06 01:37:00,
2013-11-05 18:42:00,21.6,17.2,30.06,South,187,0.0,0.0,83,0.00,,,0.00,meteohub,2013-11-06 01:42:00,
2013-11-05 18:47:00,21.2,17.1,30.06,WSW,250,0.0,0.0,84,0.00,,,0.00,meteohub,2013-11-06 01:47:00,
2013-11-05 18:52:00,21.0,17.2,30.06,WSW,249,0.0,0.0,85,0.00,,,0.00,meteohub,2013-11-06 01:52:00,
2013-11-05 18:57:00,21.0,17.4,30.06,SE,139,0.0,0.0,86,0.00,,,0.00,meteohub,2013-11-06 01:57:00,
2013-11-05 19:02:00,20.8,17.2,30.07,SSW,201,0.0,0.0,86,0.00,,,0.00,meteohub,2013-11-06 02:02:00,
2013-11-05 19:07:00,20.8,17.2,30.08,SSW,208,0.0,0.0,86,0.00,,,0.00,meteohub,2013-11-06 02:07:00,
2013-11-05 19:12:00,20.7,17.4,30.08,SSE,148,0.0,0.0,87,0.00,,,0.00,meteohub,2013-11-06 02:12:00,
2013-11-05 19:17:00,20.5,17.2,30.09,NNW,327,0.0,0.0,87,0.00,,,0.00,meteohub,2013-11-06 02:17:00,
2013-11-05 19:22:00,20.3,16.7,30.09,SE,135,0.0,0.0,86,0.00,,,0.00,meteohub,2013-11-06 02:22:00,
2013-11-05 19:27:00,20.3,16.7,30.09,SSE,157,0.0,0.0,86,0.00,,,0.00,meteohub,2013-11-06 02:27:00,
2013-11-05 19:32:00,20.1,16.3,30.09,South,184,0.0,0.0,85,0.00,,,0.00,meteohub,2013-11-06 02:32:00,
2013-11-05 19:37:00,20.3,16.5,30.09,SW,222,0.0,0.0,85,0.00,,,0.00,meteohub,2013-11-06 02:37:00,
2013-11-05 19:42:00,20.1,16.3,30.10,WNW,294,0.0,0.0,85,0.00,,,0.00,meteohub,2013-11-06 02:42:00,
2013-11-05 19:47:00,19.9,16.2,30.10,ESE,120,0.0,0.0,85,0.00,,,0.00,meteohub,2013-11-06 02:47:00,
2013-11-05 19:52:00,19.9,16.0,30.11,SSE,152,0.0,0.0,84,0.00,,,0.00,meteohub,2013-11-06 02:52:00,
2013-11-05 19:57:00,19.9,16.2,30.12,ESE,112,0.0,0.0,85,0.00,,,0.00,meteohub,2013-11-06 02:57:00,
2013-11-05 20:02:00,19.8,16.0,30.12,SW,225,0.0,0.0,85,0.00,,,0.00,meteohub,2013-11-06 03:02:00,
2013-11-05 20:07:00,19.6,15.8,30.13,SE,143,0.0,0.0,85,0.00,,,0.00,meteohub,2013-11-06 03:07:00,
2013-11-05 20:12:00,19.6,15.8,30.13,SE,146,0.0,0.0,85,0.00,,,0.00,meteohub,2013-11-06 03:12:00,
2013-11-05 20:17:00,19.4,15.4,30.14,WSW,245,0.0,0.0,84,0.00,,,0.00,meteohub,2013-11-06 03:17:00,
2013-11-05 20:22:00,19.4,15.4,30.13,ESE,114,0.0,0.0,84,0.00,,,0.00,meteohub,2013-11-06 03:22:00,
2013-11-05 20:27:00,19.2,14.9,30.13,SE,139,0.0,0.0,83,0.00,,,0.00,meteohub,2013-11-06 03:27:00,
2013-11-05 20:32:00,19.2,15.3,30.13,ESE,119,0.0,0.0,84,0.00,,,0.00,meteohub,2013-11-06 03:32:00,
2013-11-05 20:37:00,19.0,14.7,30.13,SE,132,0.0,0.0,83,0.00,,,0.00,meteohub,2013-11-06 03:37:00,
2013-11-05 20:42:00,19.0,15.1,30.13,SSE,153,0.0,0.0,84,0.00,,,0.00,meteohub,2013-11-06 03:42:00,
2013-11-05 20:47:00,18.9,14.9,30.14,SE,143,0.0,0.0,84,0.00,,,0.00,meteohub,2013-11-06 03:47:00,
2013-11-05 20:52:00,18.9,14.5,30.14,SSE,151,0.0,0.0,83,0.00,,,0.00,meteohub,2013-11-06 03:52:00,
2013-11-05 20:57:00,18.9,14.5,30.14,South,187,0.0,0.0,83,0.00,,,0.00,meteohub,2013-11-06 03:57:00,
2013-11-05 21:02:00,18.9,14.5,30.14,South,177,0.0,0.0,83,0.00,,,0.00,meteohub,2013-11-06 04:02:00,
2013-11-05 21:07:00,18.9,14.5,30.15,ESE,113,0.0,0.0,83,0.00,,,0.00,meteohub,2013-11-06 04:07:00,
2013-11-05 21:12:00,18.7,14.7,30.16,SSE,150,0.0,0.0,84,0.00,,,0.00,meteohub,2013-11-06 04:12:00,
2013-11-05 21:17:00,18.7,14.7,30.16,SW,222,0.0,0.0,84,0.00,,,0.00,meteohub,2013-11-06 04:17:00,
2013-11-05 21:22:00,18.7,14.7,30.17,SE,139,0.0,0.0,84,0.00,,,0.00,meteohub,2013-11-06 04:22:00,
2013-11-05 21:27:00,18.7,14.7,30.17,ESE,123,0.0,0.0,84,0.00,,,0.00,meteohub,2013-11-06 04:27:00,
2013-11-05 21:32:00,18.5,14.5,30.17,SE,146,0.0,0.0,84,0.00,,,0.00,meteohub,2013-11-06 04:32:00,
2013-11-05 21:37:00,18.3,14.4,30.18,SE,129,0.0,0.0,84,0.00,,,0.00,meteohub,2013-11-06 04:37:00,
2013-11-05 21:42:00,18.3,14.5,30.18,SE,134,0.0,0.0,85,0.00,,,0.00,meteohub,2013-11-06 04:42:00,
2013-11-05 21:47:00,18.5,14.7,30.18,ESE,116,0.0,0.0,85,0.00,,,0.00,meteohub,2013-11-06 04:47:00,
2013-11-05 21:52:00,18.5,15.1,30.18,ESE,118,0.0,0.0,86,0.00,,,0.00,meteohub,2013-11-06 04:52:00,
2013-11-05 21:57:00,18.7,15.3,30.18,SE,126,0.0,0.0,86,0.00,,,0.00,meteohub,2013-11-06 04:57:00,
2013-11-05 22:01:00,18.7,15.3,30.18,SE,146,0.0,0.0,86,0.00,,,0.00,meteohub,2013-11-06 05:01:00,
2013-11-05 22:02:00,18.5,15.1,30.19,SSE,150,0.0,0.0,86,0.00,,,0.00,meteohub,2013-11-06 05:02:00,
2013-11-05 22:07:00,18.3,14.9,30.18,ESE,120,0.0,0.0,86,0.00,,,0.00,meteohub,2013-11-06 05:07:00,
2013-11-05 22:12:00,18.1,14.9,30.19,ESE,117,0.0,0.0,87,0.00,,,0.00,meteohub,2013-11-06 05:12:00,
2013-11-05 22:17:00,18.1,14.9,30.18,SE,126,0.0,0.0,87,0.00,,,0.00,meteohub,2013-11-06 05:17:00,
2013-11-05 22:22:00,18.1,14.9,30.18,SE,139,0.0,0.0,87,0.00,,,0.00,meteohub,2013-11-06 05:22:00,
2013-11-05 22:27:00,18.0,14.7,30.18,ESE,122,0.0,0.0,87,0.00,,,0.00,meteohub,2013-11-06 05:27:00,
2013-11-05 22:32:00,17.8,14.5,30.18,SE,131,0.0,0.0,87,0.00,,,0.00,meteohub,2013-11-06 05:32:00,
2013-11-05 22:38:00,17.8,14.9,30.18,ESE,122,0.0,0.0,88,0.00,,,0.00,meteohub,2013-11-06 05:38:00,
2013-11-05 22:43:00,17.8,14.9,30.18,ESE,115,0.0,0.0,88,0.00,,,0.00,meteohub,2013-11-06 05:43:00,
2013-11-05 22:48:00,17.8,14.9,30.19,ESE,112,0.0,0.0,88,0.00,,,0.00,meteohub,2013-11-06 05:48:00,
2013-11-05 22:53:00,17.8,14.9,30.19,ESE,110,0.0,0.0,88,0.00,,,0.00,meteohub,2013-11-06 05:53:00,
2013-11-05 22:58:00,17.4,14.5,30.19,ESE,110,0.0,0.0,88,0.00,,,0.00,meteohub,2013-11-06 05:58:00,
2013-11-05 23:03:00,17.1,14.4,30.19,ESE,120,0.0,0.0,89,0.00,,,0.00,meteohub,2013-11-06 06:03:00,
2013-11-05 23:08:00,17.1,14.4,30.19,SE,131,0.0,0.0,89,0.00,,,0.00,meteohub,2013-11-06 06:08:00,
2013-11-05 23:13:00,17.1,14.4,30.19,ESE,117,0.0,0.0,89,0.00,,,0.00,meteohub,2013-11-06 06:13:00,
2013-11-05 23:18:00,17.2,14.5,30.20,SSE,153,0.0,0.0,89,0.00,,,0.00,meteohub,2013-11-06 06:18:00,
2013-11-05 23:23:00,17.2,14.5,30.20,SE,129,0.0,0.0,89,0.00,,,0.00,meteohub,2013-11-06 06:23:00,
2013-11-05 23:28:00,17.4,14.7,30.20,SW,233,0.0,0.0,89,0.00,,,0.00,meteohub,2013-11-06 06:28:00,
2013-11-05 23:33:00,17.6,14.9,30.21,WSW,255,0.0,0.0,89,0.00,,,0.00,meteohub,2013-11-06 06:33:00,
2013-11-05 23:38:00,17.6,14.9,30.21,SW,225,0.0,0.0,89,0.00,,,0.00,meteohub,2013-11-06 06:38:00,
2013-11-05 23:44:00,17.4,14.7,30.22,SE,146,0.0,0.0,89,0.00,,,0.00,meteohub,2013-11-06 06:44:00,
2013-11-05 23:49:00,17.4,14.7,30.21,SW,223,0.0,0.0,89,0.00,,,0.00,meteohub,2013-11-06 06:49:00,
2013-11-05 23:54:00,17.2,14.5,30.22,South,191,0.0,0.0,89,0.00,,,0.00,meteohub,2013-11-06 06:54:00,
2013-11-05 23:59:00,17.2,14.5,30.22,West,267,0.0,0.0,89,0.00,,,0.00,meteohub,2013-11-06 06:59:00,